Date String (YYYY-MM-DD hh:mm:ss) UTC,Instrument flags,Ambient pressure (hPa),Sample flow (lpm),Bypass flow (lpm),Sample temperature (°C),Ambient temperature (°C),ASC tube jacket temperature (°C),LED temperature (°C),Box temperature (°C),Sample RH (%),Span deviation,Mass concentration (μg/m³),Mass concentration (μg/m³),Mass concentration (μg/m³)
DateTimeUTC,F1_M11,P_M11,Q1_M11,Q2_M11,T1_M11,T2_M11,T3_M11,T4_M11,T5_M11,U1_M11,ZSPAN_M11,X0_M11,X2_M11,X1_M11
2022-04-11 13:00:00,,0817.5,4.99,0.00,22.7,22.4,00.0,31.5,24.5,06.8,0000.0,0014.48,0004.61,0002.52
2022-04-11 13:01:00,,0817.5,5.00,0.00,22.7,22.2,00.0,31.5,24.5,06.9,0000.0,0013.73,0004.64,0002.53
2022-04-11 13:02:00,,0817.4,5.00,0.00,22.7,22.1,00.0,31.5,24.5,06.8,0000.0,0013.72,0004.64,0002.52
2022-04-11 13:03:00,,0817.5,5.01,0.00,22.7,22.1,00.0,31.5,24.5,06.8,0000.0,0013.49,0004.60,0002.49
2022-04-11 13:04:00,,0817.6,5.00,0.00,22.7,22.0,00.0,31.5,24.5,06.9,0000.0,0013.71,0004.57,0002.46
2022-04-11 13:05:00,,0817.6,5.00,0.00,22.7,21.9,00.0,31.5,24.5,07.1,0000.0,0013.88,0004.52,0002.43
2022-04-11 13:06:00,,0817.5,5.00,0.00,22.7,21.9,00.0,31.5,24.5,07.1,0000.0,0013.43,0004.46,0002.41
2022-04-11 13:07:00,,0817.5,5.01,0.00,22.6,21.8,00.0,31.5,24.4,07.1,0000.0,0013.48,0004.43,0002.40
2022-04-11 13:08:00,,0817.5,5.00,0.00,22.6,21.8,00.0,31.5,24.4,06.9,0000.0,0013.28,0004.37,0002.35
2022-04-11 13:09:00,,0817.5,5.00,0.00,22.6,21.8,00.0,31.5,24.4,06.8,0000.0,0012.89,0004.25,0002.29
2022-04-11 13:10:00,,0817.6,5.00,0.00,22.6,21.8,00.0,31.5,24.4,06.9,0000.0,0012.64,0004.18,0002.24
2022-04-11 13:11:00,,0817.6,5.00,0.00,22.6,21.7,00.0,31.5,24.4,07.1,0000.0,0012.25,0004.07,0002.18
2022-04-11 13:12:00,,0817.7,5.00,0.00,22.6,21.7,00.0,31.5,24.4,07.3,0000.0,0012.09,0003.99,0002.13
2022-04-11 13:13:00,,0817.7,5.00,0.00,22.6,21.6,00.0,31.5,24.3,07.5,0000.0,0012.15,0003.98,0002.10
2022-04-11 13:14:00,,0817.7,5.00,0.00,22.5,21.6,00.0,31.5,24.3,07.4,0000.0,0012.25,0004.00,0002.10
2022-04-11 13:15:00,,0817.6,5.00,0.00,22.5,21.5,00.0,31.5,24.3,07.3,0000.0,0012.66,0003.98,0002.07
2022-04-11 13:16:00,,0817.6,4.99,0.00,22.5,21.5,00.0,31.5,24.2,07.4,0000.0,0012.69,0004.00,0002.07
2022-04-11 13:17:00,,0817.6,5.00,0.00,22.5,21.6,00.0,31.5,24.2,07.4,0000.0,0012.86,0004.01,0002.06
2022-04-11 13:18:00,,0817.6,5.01,0.00,22.5,21.6,00.0,31.5,24.2,07.6,0000.0,0012.45,0003.99,0002.04
2022-04-11 13:19:00,,0817.7,5.00,0.00,22.5,21.6,00.0,31.5,24.2,07.6,0000.0,0012.54,0003.99,0002.05
2022-04-11 13:20:00,,0817.6,5.01,0.00,22.5,21.6,00.0,31.5,24.1,07.7,0000.0,0013.09,0004.08,0002.06
2022-04-11 13:21:00,,0817.6,5.00,0.00,22.4,21.5,00.0,31.5,24.1,07.8,0000.0,0012.99,0004.10,0002.07
2022-04-11 13:22:00,,0817.6,4.99,0.00,22.4,21.5,00.0,31.4,24.1,07.7,0000.0,0012.92,0004.15,0002.09
2022-04-11 13:23:00,,0817.5,5.00,0.00,22.4,21.4,00.0,31.4,24.1,07.8,0000.0,0013.05,0004.20,0002.09
2022-04-11 13:24:00,,0817.6,5.00,0.00,22.4,21.4,00.0,31.4,24.1,08.1,0000.0,0012.57,0004.11,0002.09
2022-04-11 13:25:00,,0817.6,4.99,0.00,22.3,21.4,00.0,31.4,24.1,07.9,0000.0,0012.75,0004.05,0002.07
2022-04-11 13:26:00,,0817.6,5.00,0.00,22.4,21.4,00.0,31.4,24.1,07.8,0000.0,0011.98,0003.99,0002.05
2022-04-11 13:27:00,,0817.7,5.00,0.00,22.3,21.4,00.0,31.4,24.1,07.9,0000.0,0011.28,0003.93,0002.05
2022-04-11 13:28:00,,0817.7,4.99,0.00,22.4,21.4,00.0,31.4,24.1,07.9,0000.0,0011.12,0003.88,0002.02
2022-04-11 13:29:00,,0817.6,5.00,0.00,22.4,21.5,00.0,31.4,24.1,07.8,0000.0,0011.29,0003.87,0002.02
2022-04-11 13:30:00,,0817.6,5.01,0.00,22.4,21.8,00.0,31.4,24.2,07.8,0000.0,0011.30,0003.83,0001.99
2022-04-11 13:31:00,,0817.6,5.00,0.00,22.5,22.9,00.0,31.4,24.5,07.7,0000.0,0010.73,0003.74,0001.98
2022-04-11 13:32:00,,0817.6,5.01,0.00,22.7,23.6,00.0,31.5,24.7,07.4,0000.0,0010.80,0003.71,0001.96
2022-04-11 13:33:00,,0817.5,5.00,0.00,22.8,23.4,00.0,31.5,24.8,07.5,0000.0,0010.53,0003.70,0001.96
2022-04-11 13:34:00,,0817.5,5.00,0.00,22.8,23.2,00.0,31.5,24.8,07.9,0000.0,0010.26,0003.64,0001.95
2022-04-11 13:35:00,,0817.5,5.01,0.00,22.8,23.0,00.0,31.5,24.7,08.0,0000.0,0010.28,0003.64,0001.95
2022-04-11 13:36:00,,0817.5,4.99,0.00,22.8,22.8,00.0,31.6,24.7,07.8,0000.0,0009.93,0003.60,0001.95
2022-04-11 13:37:00,,0817.5,5.01,0.00,22.8,22.6,00.0,31.6,24.7,07.8,0000.0,0009.80,0003.60,0001.98
2022-04-11 13:38:00,,0817.4,5.00,0.00,22.8,22.5,00.0,31.6,24.7,07.3,0000.0,0009.72,0003.58,0001.96
2022-04-11 13:39:00,,0817.4,5.01,0.00,22.8,22.4,00.0,31.6,24.7,07.2,0000.0,0009.57,0003.60,0001.96
2022-04-11 13:40:00,,0817.4,5.00,0.00,22.8,22.3,00.0,31.6,24.7,07.3,0000.0,0009.29,0003.57,0001.97
2022-04-11 13:41:00,,0817.4,5.00,0.00,22.8,22.2,00.0,31.6,24.7,07.4,0000.0,0009.21,0003.53,0001.97
2022-04-11 13:42:00,,0817.4,5.00,0.00,22.8,22.2,00.0,31.6,24.7,07.1,0000.0,0009.64,0003.55,0001.98
2022-04-11 13:43:00,,0817.4,4.99,0.00,22.8,22.1,00.0,31.7,24.7,07.2,0000.0,0009.89,0003.56,0001.99
2022-04-11 13:44:00,,0817.4,5.00,0.00,22.8,22.1,00.0,31.7,24.7,07.6,0000.0,0010.31,0003.52,0001.99
2022-04-11 13:45:00,,0817.4,5.00,0.00,22.8,22.1,00.0,31.7,24.7,07.5,0000.0,0010.45,0003.49,0002.00
2022-04-11 13:46:00,,0817.4,5.00,0.00,22.8,22.0,00.0,31.7,24.7,07.3,0000.0,0010.98,0003.54,0002.01
2022-04-11 13:47:00,,0817.4,5.00,0.00,22.8,22.0,00.0,31.7,24.6,07.3,0000.0,0010.98,0003.58,0002.00
2022-04-11 13:48:00,,0817.3,4.99,0.00,22.8,22.0,00.0,31.7,24.6,07.2,0000.0,0010.85,0003.56,0001.99
2022-04-11 13:49:00,,0817.3,5.00,0.00,22.8,22.0,00.0,31.7,24.6,07.0,0000.0,0010.70,0003.56,0002.01
2022-04-11 13:50:00,,0817.3,4.99,0.00,22.8,22.0,00.0,31.7,24.6,06.8,0000.0,0010.58,0003.56,0002.02
2022-04-11 13:51:00,,0817.3,5.01,0.00,22.8,22.0,00.0,31.7,24.6,06.7,0000.0,0010.72,0003.61,0002.03
2022-04-11 13:52:00,,0817.2,5.01,0.00,22.8,22.0,00.0,31.7,24.6,06.8,0000.0,0010.78,0003.67,0002.05
2022-04-11 13:53:00,,0817.3,5.01,0.00,22.8,22.0,00.0,31.7,24.6,06.7,0000.0,0011.03,0003.68,0002.05
2022-04-11 13:54:00,,0817.2,5.00,0.00,22.8,22.0,00.0,31.7,24.6,06.9,0000.0,0011.14,0003.74,0002.05
2022-04-11 13:55:00,,0817.2,5.00,0.00,22.8,22.0,00.0,31.7,24.6,06.9,0000.0,0010.38,0003.74,0002.04
2022-04-11 13:56:00,,0817.2,5.00,0.00,22.8,22.0,00.0,31.7,24.6,06.8,0000.0,0010.07,0003.76,0002.05
2022-04-11 13:57:00,,0817.3,5.00,0.00,22.8,22.0,00.0,31.7,24.6,06.8,0000.0,0009.70,0003.75,0002.05
2022-04-11 13:58:00,,0817.3,5.00,0.00,22.8,21.9,00.0,31.7,24.6,06.9,0000.0,0009.80,0003.76,0002.06
2022-04-11 13:59:00,,0817.3,4.99,0.00,22.8,21.9,00.0,31.7,24.5,06.8,0000.0,0010.38,0003.83,0002.08
